GFSSE_850_dewp_060.txt.gz
Dewpoint
15 12 12 12 11 12 11 11 10 9 10 10 9 4 -7 -14 -8 -6 -0 7 2 5 5 3 -1 -5 -5 -4 -5 -5 -0 5 6 1 -4 -2 0 2 0 -1 3 8 9
14 12 12 14 14 12 12 11 10 10 10 10 6 -3 -16 -13 -11 3 9 5 6 6 3 0 -3 -2 -2 -2 -2 0 5 6 7 7 3 0 5 4 0 -0 -0 3 5
12 12 12 13 14 13 12 11 10 11 10 8 1 -13 -16 -14 -3 8 8 6 5 3 1 -2 -1 -2 -3 -4 -4 5 6 7 8 8 7 6 9 6 6 6 5 6 5
5 12 14 14 14 13 12 12 11 11 10 5 -7 -17 -15 -11 4 8 6 4 4 2 -2 -1 -2 -2 -2 -2 -2 5 6 7 7 8 8 7 7 8 5 -0 1 4 7
11 14 13 14 14 14 13 12 11 11 8 -2 -15 -15 -11 -7 2 7 8 5 2 -1 -0 -1 -1 -1 -1 -3 2 4 5 5 6 7 7 4 -4 -2 -5 -8 -7 -6 -4
15 14 13 14 15 14 13 12 12 10 3 -10 -16 -11 -8 -3 3 7 7 3 -1 -1 -1 -1 -1 -2 -5 -7 1 4 5 6 7 6 -6 -12 -14 -17 -17 -17 -15 -13 -10
14 14 13 14 14 13 13 12 11 6 -6 -15 -11 -6 -5 -1 4 7 6 -0 -1 -1 -0 -2 -3 -6 -7 -9 -1 3 4 5 6 4 -11 -13 -12 -12 -16 -16 -17 -17 -15
14 14 13 14 13 13 13 12 7 -2 -12 -11 -5 -3 -0 4 6 6 3 -0 -1 1 -0 -2 -5 -7 -9 -11 -7 1 3 5 6 6 1 -12 -13 -16 -18 -18 -18 -17 -16
13 12 8 12 12 12 12 8 -1 -7 -6 -3 -1 2 3 4 5 4 -0 -0 1 2 1 -0 -3 -7 -8 -9 -8 1 3 4 5 6 2 -11 -11 -14 -17 -14 -12 -12 -13
12 11 9 8 7 10 9 8 5 5 4 0 3 6 5 4 2 0 -0 1 2 2 3 3 -1 -5 -7 -8 -4 -1 0 1 3 3 0 -10 -9 -9 -13 -14 -13 -12 -12
12 11 10 9 10 9 9 7 5 4 3 3 6 5 2 3 2 0 1 2 3 3 4 4 2 -2 -4 -5 -5 -4 -2 -2 1 1 -2 -10 -3 -3 -11 -12 -12 -12 -10
12 11 10 11 10 9 9 6 3 4 4 7 5 3 3 3 1 1 2 3 3 4 4 4 3 2 1 -0 -2 -4 -4 -5 -4 -4 -5 -16 -8 -6 -10 -10 -10 -11 -10
12 11 11 11 10 9 8 4 4 2 4 6 3 1 2 2 2 1 1 3 4 4 4 4 4 3 2 -1 -3 -4 -5 -5 -6 -6 -5 -18 -5 1 -0 -7 -7 -7 -7
11 11 10 10 9 8 5 4 3 4 6 5 6 5 5 4 2 1 1 3 3 4 4 5 5 4 3 1 -2 -4 -7 -6 -4 -5 -3 -18 -5 5 2 -5 -4 -4 -3
10 9 9 10 9 8 4 4 3 6 7 5 5 3 2 0 2 2 2 3 4 5 5 6 5 5 4 2 -2 -3 -3 -5 -4 -2 0 -3 -16 -12 -4 -0 -3 -5 -1
9 9 9 9 8 6 5 5 5 7 5 2 2 1 1 3 4 4 6 7 6 6 5 6 5 5 3 4 -1 -2 -4 -4 -6 -1 -2 -2 -2 -15 -2 -1 2 3 3
8 8 7 7 7 5 4 7 6 3 3 2 2 1 3 6 3 8 8 7 7 7 6 6 6 5 4 2 1 -2 -3 -2 -3 -3 -2 -1 0 1 -7 -8 -9 -7 -5
8 7 7 6 6 6 6 6 4 4 2 3 4 5 4 7 7 6 7 6 7 7 6 6 6 5 4 2 0 -1 -2 -2 -1 -0 -1 -1 1 2 1 -0 -1 -3 -4
6 6 6 7 7 6 6 4 2 3 4 5 5 7 6 2 5 4 8 8 7 7 7 6 6 5 5 3 1 -0 -1 -1 -1 -2 -2 -3 -0 -2 -1 -1 -5 -5 -6
7 7 6 6 5 5 4 5 6 7 5 4 5 7 8 6 3 2 5 7 8 8 7 7 7 6 5 4 2 -2 -1 1 1 0 -1 -2 -2 -3 -4 -3 -3 -4 -4
6 6 5 5 5 4 4 5 7 8 7 3 6 6 7 6 6 7 8 8 9 8 8 7 7 6 5 4 2 -1 1 2 2 2 -0 -2 -2 -3 -3 -3 -3 -3 -4
5 6 6 5 4 5 6 5 8 6 4 2 5 6 7 6 7 7 7 8 9 8 9 7 7 7 6 5 4 2 3 3 3 2 0 -1 -2 -2 -2 -3 -2 -4 -4
6 6 7 5 6 7 9 7 7 5 4 5 6 6 8 6 5 6 6 6 8 9 8 7 7 7 6 5 4 2 3 3 3 2 1 -0 -1 -1 -1 -1 -2 -4 -4
7 7 7 7 7 6 6 6 6 6 6 6 5 7 7 5 6 7 8 7 6 7 7 7 7 7 5 5 4 3 2 3 3 2 1 1 -0 -1 -2 -4 -4 -3 -3
8 8 7 7 7 7 7 7 7 7 6 5 5 7 8 8 7 5 6 5 6 6 8 8 8 7 5 5 4 4 3 2 3 1 1 0 -1 -1 -3 -4 -3 -3 -2
8 8 8 7 8 8 8 7 8 8 8 7 7 7 8 8 7 4 3 4 7 8 9 8 8 7 5 6 5 4 3 2 2 1 0 0 -2 -4 -4 -5 -5 -4 -4

GFSSE_850_dewp_063.txt.gz
Dewpoint
13 12 13 13 12 10 9 8 8 9 8 9 6 -2 -14 -12 -11 -11 -11 -11 4 4 1 -3 -7 -7 -6 -3 2 5 6 7 2 -5 -1 0 -1 -2 0 2 5 9 10
13 13 13 13 12 10 9 8 9 9 9 8 2 -11 -14 -11 -9 -2 -6 4 4 2 -3 -4 -4 -3 -2 4 6 7 8 8 8 5 -6 6 9 3 -1 -0 -0 2 3
9 10 13 14 13 11 9 9 9 9 9 6 -6 -16 -13 -7 6 -0 4 5 2 -2 -3 -3 -4 -5 2 6 6 7 8 9 9 8 -2 2 3 6 6 4 1 7 7
8 4 2 7 14 12 10 9 10 10 9 2 -13 -14 -12 6 6 3 4 2 -1 -3 -3 -4 -4 -4 3 6 7 8 8 8 7 7 -5 -7 -0 3 2 -1 -3 3 7
6 6 6 12 14 12 11 10 10 10 8 -4 -15 -12 1 7 2 3 3 1 -3 -3 -3 -3 -3 -4 2 6 6 6 6 7 7 6 -12 -12 -12 -10 -14 -13 -8 -4 2
7 9 12 14 13 13 11 11 11 10 5 -12 -15 -9 7 5 2 3 1 -3 -3 -2 -2 -3 -6 -7 3 5 5 6 6 5 -2 -13 -15 -14 -13 -9 -10 -10 -13 -12 -9
14 13 13 13 14 14 12 11 11 8 -2 -15 -11 -5 8 8 6 1 -2 -2 -2 -2 -3 -6 -8 -8 3 4 6 6 6 5 3 -12 -13 -13 -13 -6 -5 -10 -14 -15 -14
13 13 14 14 14 14 13 12 10 3 -10 -11 -7 2 8 8 6 -1 -2 -1 -0 -2 -4 -7 -9 -11 -1 3 4 5 6 6 4 -6 -12 -14 -14 -12 -16 -18 -18 -15 -8
11 11 11 9 11 12 13 11 7 0 -4 6 1 6 8 7 4 -1 -1 0 0 -1 -4 -7 -9 -11 -6 1 3 5 6 4 3 2 -11 -13 -15 -13 -13 -15 -13 -11 -10
12 10 10 9 8 7 8 9 8 3 3 8 6 7 8 8 5 0 0 1 1 1 -1 -6 -7 -8 -5 0 2 1 3 4 3 1 -9 -12 -13 -14 -14 -14 -9 -5 -10
12 11 9 9 9 8 8 8 7 5 4 6 8 8 8 8 5 1 1 2 3 3 1 -4 -5 -5 -6 -3 -1 -1 -2 1 0 -1 -8 -13 -11 -12 -11 -12 -11 -4 -2
12 11 10 9 9 9 9 8 7 -1 2 6 8 7 5 6 3 1 2 3 3 4 4 2 -1 -2 -2 -3 -5 -2 -3 -4 -4 -5 -6 -14 -10 -8 -12 -13 -12 -10 -10
11 11 10 10 10 9 9 7 7 2 2 6 7 6 4 3 1 2 2 3 3 4 4 4 2 -0 -2 -3 -4 -5 -5 -6 -6 -5 -5 -15 -11 -9 -11 -13 -13 -12 -10
11 11 11 11 10 9 8 8 6 2 5 6 5 3 1 1 2 0 2 3 3 4 4 4 4 3 2 -2 -4 -6 -5 -6 -5 -5 -3 -9 -12 -8 -5 -9 -9 -10 -11
11 10 10 10 9 9 6 3 6 7 5 3 4 4 4 2 0 1 0 0 3 4 5 5 5 5 3 -1 -2 -3 -5 -6 -5 -2 -1 -2 -7 -6 1 -1 -10 -11 -9
10 9 9 9 9 6 5 3 3 3 5 6 5 3 2 2 3 1 -0 -1 3 5 5 5 5 5 4 3 -2 -3 -3 -4 -4 -2 -2 -2 -2 -3 -8 -7 -7 -8 -6
9 9 9 9 8 6 6 5 5 6 7 5 2 2 4 4 4 -0 -1 4 6 6 6 6 5 5 5 4 1 -2 -2 -2 -5 -3 -2 -1 -2 -1 -0 -2 -3 -3 -7
8 9 9 9 7 5 3 4 7 6 5 2 3 3 5 3 -0 -0 5 7 7 7 7 6 6 5 5 4 2 1 -2 -2 -2 -2 -0 -1 -2 0 1 0 -0 -1 -4
8 8 8 7 6 5 4 4 4 4 3 3 4 5 1 -0 0 6 6 7 7 7 7 6 6 6 5 4 3 2 1 -1 -1 -0 0 -2 -2 -1 -1 -2 -1 -4 -4
7 7 7 6 5 4 4 5 6 5 3 2 6 5 2 2 2 5 7 5 7 7 7 6 6 6 5 5 4 2 0 -2 -2 2 2 0 -2 -1 -1 -3 -4 -4 -3
6 6 6 6 6 6 7 7 4 2 2 2 4 2 5 6 6 4 1 4 6 6 7 7 7 7 6 5 5 2 -1 -2 1 2 2 1 0 -1 -3 -3 -3 -3 -3
6 6 6 6 6 7 5 3 3 4 2 2 2 5 6 6 7 4 2 4 6 8 8 8 8 7 7 6 5 3 0 1 2 2 2 2 0 -1 -2 -2 -2 -3 -2
5 4 4 4 4 4 4 5 6 7 7 7 3 5 6 6 6 5 4 5 6 8 8 8 7 7 6 7 5 4 3 3 3 3 2 2 1 -1 -1 -1 -2 -3 -3
2 3 3 3 3 3 5 5 6 7 7 5 1 0 2 4 5 6 6 6 7 7 7 7 7 8 7 7 6 4 3 3 3 2 2 2 1 -0 -0 -0 -2 -4 -3
3 3 3 3 3 5 6 8 8 6 5 3 4 5 5 5 6 6 6 7 7 8 8 8 7 7 8 7 6 5 5 4 4 3 2 2 1 1 0 -1 -2 -3 -3
6 6 3 3 3 3 6 7 8 7 6 6 6 6 6 6 7 8 8 8 7 8 8 7 8 9 9 8 7 6 5 5 4 3 2 2 1 2 -3 -3 -3 -4 -3

GFSSE_850_dewp_066.txt.gz
Dewpoint
13 13 11 10 7 4 5 7 6 5 7 7 4 -3 -12 -8 -5 -5 -7 -10 -1 5 3 -5 -8 -7 -4 -0 3 2 -2 -2 1 3 2 6 1 2 4 5 9 9 9
12 12 11 11 11 5 6 7 6 6 8 5 -1 -12 -11 -10 -8 -10 -3 4 3 -3 -7 -6 -3 1 3 6 7 7 5 3 -2 3 9 10 9 6 -1 0 3 8 9
12 13 13 12 12 9 7 8 7 8 7 1 -10 -11 -12 -11 -11 0 4 2 -2 -5 -3 -2 3 5 7 9 9 9 8 4 -1 -5 1 7 10 5 -0 8 10 10 9
11 11 13 13 12 10 11 9 8 9 7 -5 -13 -12 -10 -8 -5 2 2 -1 -4 -5 -6 -3 4 6 6 7 7 8 6 6 4 -7 -9 -7 0 3 0 -2 6 9 9
9 8 9 11 10 8 7 10 9 8 3 -7 -9 -6 1 -4 0 1 -0 -5 -5 -5 -5 -1 6 7 6 7 7 7 7 5 5 -15 -15 -14 -11 -3 -9 -8 1 8 8
9 11 9 6 9 9 9 9 9 8 -1 -11 -3 7 2 0 0 0 -4 -4 -4 -3 -3 -0 6 6 6 6 6 6 5 -11 -14 -14 -14 -12 -7 -3 -9 -13 -9 4 6
12 7 9 9 10 12 11 12 11 8 -5 -10 9 10 4 1 0 -4 -4 -3 -3 -3 -6 1 5 4 5 6 5 5 5 -2 -12 -14 -15 -13 -6 -3 -3 -4 -1 2 0
12 12 13 13 9 9 13 11 11 11 5 1 9 10 4 2 -1 -3 -2 -2 -3 -6 -8 -4 4 3 5 6 6 5 4 1 -6 -12 -14 -12 -4 -2 -2 -0 -1 -0 -1
13 12 11 11 9 9 7 12 8 2 -9 4 9 9 7 2 -2 -1 -1 -2 -4 -7 -9 -9 3 3 3 4 4 5 3 2 -2 -11 -13 -12 -5 -1 1 -1 -1 -6 -8
12 11 11 12 10 8 7 9 8 5 2 6 9 9 8 2 -0 -0 -0 -1 -4 -7 -9 -11 -1 2 3 3 3 3 2 1 -0 -6 -12 -12 -10 -8 -9 -6 -7 -8 -11
12 12 11 11 10 8 7 8 7 8 6 7 8 9 8 2 0 1 1 1 -1 -6 -8 -8 -6 1 2 2 1 0 -0 -1 -3 -6 -12 -11 -13 -12 -11 -6 -6 -8 -11
11 11 11 9 9 8 8 9 8 6 7 6 7 7 7 1 1 2 2 3 3 -0 -6 -7 -7 -4 -0 -0 -1 -2 -3 -4 -6 -6 -10 -11 -10 -12 -13 -13 -9 -11 -12
11 11 10 9 9 8 9 9 8 6 4 3 5 7 6 1 1 2 3 3 4 3 2 -1 -3 -3 -3 -4 -3 -4 -5 -6 -5 -5 -8 -9 -9 -9 -10 -11 -10 -8 -11
11 10 11 9 9 9 9 8 6 4 7 7 6 6 4 1 2 3 3 3 3 4 3 3 2 0 -2 -3 -5 -5 -5 -5 -4 -3 -3 -5 -7 -9 -8 -9 -8 -7 -7
10 11 10 10 10 9 8 7 4 9 7 7 6 4 2 1 2 1 2 3 3 4 4 4 5 4 1 -2 -5 -5 -5 -5 -4 -1 -2 -2 -3 -6 -7 -4 0 -3 -8
10 10 11 10 10 9 7 6 4 7 5 5 5 2 0 1 -0 1 0 1 3 4 4 5 5 5 3 0 -3 -3 -3 -3 -3 -2 -1 -1 -1 -1 -1 -1 -3 -4 -4
10 9 10 10 9 9 8 7 3 4 5 5 4 3 1 1 1 -0 0 1 3 4 4 5 5 5 5 5 1 -2 -3 -2 -3 -2 -1 -1 -2 -1 0 -2 -1 -1 -1
9 9 9 9 9 7 6 6 7 6 5 5 4 4 5 4 3 1 1 4 4 4 5 6 5 6 5 5 3 1 -1 -2 -2 -2 -0 -1 -1 -1 -1 0 -1 -1 -2
8 8 9 9 9 5 5 8 8 8 6 4 3 2 1 1 3 2 5 5 4 4 6 7 6 6 6 5 4 4 4 4 -2 -1 0 0 -1 -2 -2 -1 -1 -3 -4
8 8 9 9 8 6 4 4 6 8 5 3 2 1 1 2 2 3 3 2 1 6 7 7 6 6 6 6 5 4 4 3 -0 -2 1 2 1 -1 -1 -2 -3 -4 -3
7 7 8 8 7 6 4 5 5 4 4 3 1 1 5 4 2 1 -1 1 4 4 5 6 7 6 6 6 5 4 4 2 0 -2 2 2 2 1 0 -1 -2 -2 -2
7 7 7 7 6 5 3 4 5 4 3 2 2 4 6 6 6 2 0 2 0 2 7 7 7 7 7 6 6 4 3 2 0 -1 1 2 2 2 0 -1 -2 -3 -2
6 6 7 6 6 5 4 4 5 4 4 2 3 4 4 3 4 5 4 4 2 5 6 6 7 7 8 8 6 5 3 3 2 1 1 2 3 2 1 -0 -1 -1 -1
5 5 6 6 6 5 5 6 6 4 3 3 1 3 2 0 2 3 4 3 4 5 5 5 7 8 8 8 7 6 6 5 4 3 3 3 3 2 1 -0 -1 -1 -1
4 4 5 6 6 6 5 3 3 3 2 1 2 2 -1 0 4 4 5 4 3 5 6 6 7 8 8 8 8 8 7 7 5 4 4 4 3 2 1 0 1 -0 -0
2 3 3 4 4 4 3 3 4 4 4 3 1 0 -1 -2 2 3 4 5 5 6 6 6 7 8 8 8 8 8 7 7 6 5 5 3 3 2 2 0 0 0 -1

GFSSE_850_dewp_069.txt.gz
Dewpoint
14 13 11 8 6 5 7 7 9 6 5 4 6 9 9 8 6 4 -2 -0 9 10 10 5 -2 -5 -6 -6 -2 3 4 2 3 2 3 7 5 4 8 9 9 9 9
15 14 11 7 3 4 5 7 8 7 6 4 1 3 5 5 2 -4 -7 -1 8 6 -0 -4 -3 -1 0 -2 -5 -5 -2 4 9 9 10 10 10 5 4 8 9 9 9
13 13 11 8 4 4 6 7 7 6 7 5 -1 -5 -2 -3 -7 -9 -1 4 2 -4 -7 -3 -1 2 5 5 3 1 -2 -2 2 6 6 8 10 10 9 9 9 9 9
14 12 12 10 9 6 6 7 8 7 7 2 -5 -3 -1 -3 0 3 2 -2 -6 -5 -2 -1 1 5 6 6 5 5 4 -6 -5 -5 -4 5 10 9 9 9 9 9 9
12 13 12 12 12 9 8 5 8 9 5 -2 -5 0 0 1 3 1 -3 -4 -4 -2 1 0 4 5 6 7 7 4 2 -2 -12 -10 -6 -4 2 7 8 8 8 8 7
13 13 14 13 13 11 10 9 7 10 6 -4 -4 -1 1 4 1 -2 -5 -6 -6 -1 3 3 4 5 6 6 5 -5 -12 -13 -13 -13 -11 -6 -2 3 5 7 4 6 3
13 11 11 12 13 12 12 11 10 10 7 -6 -4 1 5 2 -1 -4 -5 -5 -4 2 4 4 5 5 6 5 4 1 -11 -12 -14 -14 -12 -9 -2 2 3 2 4 4 4
13 12 11 12 11 10 8 8 11 10 8 5 4 4 4 0 -3 -4 -4 -3 -3 3 5 4 5 5 6 4 4 1 -1 -11 -13 -14 -13 -13 -5 -1 3 2 -1 -1 -2
12 13 12 12 10 9 10 7 12 11 10 10 5 3 3 -1 -3 -3 -3 -4 -3 4 4 4 4 5 5 4 4 2 -0 -5 -11 -13 -13 -11 -6 -2 -2 -4 -6 -5 -7
12 12 12 11 8 7 8 8 11 11 10 11 4 3 2 -1 -1 -2 -4 -7 -7 2 4 3 3 3 4 4 3 2 -1 -4 -10 -11 -13 -12 -9 -3 -6 -7 -9 -13 -15
12 11 11 11 10 10 9 6 9 11 11 11 8 4 1 -0 -1 -3 -6 -8 -10 -7 3 3 2 1 -1 2 1 -0 -2 -6 -6 -11 -10 -11 -12 -6 -6 -6 -10 -11 -11
11 11 11 11 11 10 8 7 8 7 8 8 8 6 0 0 -1 -3 -5 -8 -10 -10 -1 2 2 2 1 -0 -1 -3 -5 -5 -5 -9 -9 -9 -10 -8 -5 -6 -8 -10 -12
11 11 10 10 10 9 9 9 9 7 7 8 7 4 1 1 -1 -0 -3 -6 -8 -8 -6 -1 0 -1 -0 -2 -3 -4 -5 -5 -4 -5 -7 -8 -8 -7 -6 -6 -9 -10 -10
11 10 9 9 9 9 9 9 8 8 8 8 7 4 1 1 2 3 2 0 -2 -3 -4 -5 -4 -3 -4 -4 -4 -5 -5 -4 -3 -2 -3 -3 -5 -7 -6 -7 -7 -8 -9
11 9 9 9 9 9 8 8 6 5 7 7 6 5 1 2 3 3 3 3 3 3 3 2 -1 -2 -3 -4 -5 -5 -4 -4 -2 -1 -1 -1 -2 -2 -2 -2 -4 -4 -5
9 9 10 10 10 9 9 8 7 6 6 7 8 5 2 3 3 3 3 3 4 4 4 4 4 4 -1 -3 -3 -3 -4 -4 -3 -1 -1 -1 -1 -2 -1 -1 -1 -1 -1
8 8 9 10 10 9 9 7 6 5 3 6 7 6 1 2 2 3 3 3 3 3 4 4 5 5 2 1 -2 -3 -3 -2 -2 -2 -1 -0 -1 -2 -1 -1 -1 -1 -1
8 9 10 10 10 9 8 5 9 9 9 9 7 3 2 1 1 1 2 3 0 2 4 4 5 5 5 5 4 1 -2 -2 -2 -1 -1 0 0 -1 -1 -1 -0 -1 -2
8 9 9 9 9 9 8 9 9 9 8 5 5 3 2 1 1 0 1 1 -1 3 5 5 5 5 6 5 4 3 3 4 3 -2 -2 -0 0 0 -1 -1 -1 -2 -2
7 8 9 9 9 9 8 6 7 7 7 6 4 3 2 2 2 2 3 3 4 4 4 5 6 6 6 6 5 4 3 3 3 2 0 0 1 1 -0 -0 -1 -2 -3
7 8 8 9 9 8 7 7 8 7 7 6 4 4 4 4 3 3 4 5 5 4 1 3 6 7 6 6 5 4 4 3 2 2 -0 -1 1 2 2 0 0 -1 -2
7 7 8 9 9 6 7 8 7 5 6 4 3 5 6 3 2 2 5 6 3 2 1 3 6 7 7 6 6 5 5 3 3 2 1 -1 -0 2 2 2 1 -0 -1
7 7 7 8 8 6 5 8 7 7 6 4 2 2 2 1 2 3 5 4 4 2 3 4 6 7 7 7 7 6 5 4 4 4 2 1 -0 1 2 2 1 0 -1
5 6 7 8 7 6 5 4 4 6 6 4 3 1 1 2 3 5 6 6 5 4 5 3 5 7 8 8 8 8 7 5 6 4 4 4 1 1 3 3 2 1 -1
4 5 6 7 7 6 5 4 5 5 4 4 3 2 2 2 4 3 3 3 3 4 6 6 6 6 6 7 8 9 8 7 6 5 5 4 3 3 4 2 2 2 0
3 4 5 6 6 6 5 4 4 4 5 4 4 4 2 2 3 2 -0 0 2 5 6 6 7 7 7 8 8 8 8 8 7 7 6 6 4 4 4 3 2 2 1

GFSSE_850_dewp_072.txt.gz
Dewpoint
12 9 6 5 4 5 5 7 6 6 7 9 10 10 9 6 4 3 1 1 7 10 11 11 10 10 10 9 7 9 7 9 11 11 10 11 10 9 8 9 10 10 10
13 13 9 7 4 5 6 4 5 5 5 6 10 10 9 7 5 2 3 7 10 10 10 7 1 -6 -0 1 -1 -3 1 7 8 8 6 6 8 9 8 9 9 10 9
15 14 12 9 5 7 6 6 6 7 5 7 10 10 8 7 4 2 7 10 10 9 6 -2 -4 -4 -6 -6 -6 -4 -1 3 4 7 10 9 9 9 9 9 9 9 9
14 14 12 9 8 7 7 6 7 6 5 8 7 5 6 5 3 2 8 8 6 2 1 7 1 2 -0 -1 -4 -7 -3 -2 -5 -5 5 8 9 9 8 8 8 7 4
14 14 12 8 9 9 8 8 7 6 5 4 1 -1 0 0 0 7 5 2 -3 -4 9 6 5 5 4 2 0 -3 -9 -8 -8 -6 -3 8 9 9 8 5 7 5 4
14 14 13 12 10 10 10 11 10 10 6 2 -2 -8 -8 -4 3 3 -1 -3 -4 -3 1 3 5 5 2 -7 -10 -8 -13 -11 -10 -8 -7 -1 8 9 7 6 4 3 1
13 14 13 11 12 10 10 11 10 11 9 7 0 2 -10 2 1 7 7 1 -3 0 3 4 5 4 2 -4 -12 -12 -12 -11 -11 -10 -7 2 8 8 6 3 2 2 0
9 13 13 12 12 12 11 11 10 11 11 9 5 -2 -4 2 0 7 9 -0 -3 1 2 4 5 5 4 -4 -5 -11 -12 -13 -12 -11 -9 1 5 4 -2 -3 -4 -4 -6
9 11 12 11 11 11 9 9 7 11 11 10 1 3 3 0 0 3 -0 1 2 3 4 5 5 4 4 1 -2 -6 -11 -12 -12 -12 -11 -6 -3 -4 -1 -3 -8 -12 -12
9 10 12 11 10 10 9 9 7 7 11 10 4 6 2 -1 -2 -2 -0 2 3 2 3 4 5 4 4 2 -0 -3 -9 -10 -11 -11 -10 -3 2 3 -1 -9 -12 -11 -11
12 12 12 12 10 10 8 7 7 8 11 9 8 5 1 -2 -2 -1 1 3 3 3 3 4 4 4 3 1 -2 -5 -6 -9 -10 -10 -9 -1 -1 -1 -9 -9 -10 -10 -11
11 11 12 11 11 10 10 7 10 11 10 8 7 5 0 -2 -1 -3 0 3 3 3 2 2 2 2 1 -1 -4 -5 -5 -7 -9 -8 -9 -8 -7 -7 -7 -7 -8 -9 -10
11 11 11 10 11 11 9 8 10 10 10 10 7 4 -1 -0 -3 -6 -7 -4 2 2 2 2 2 1 -1 -3 -5 -5 -4 -5 -7 -7 -7 -7 -6 -5 -6 -6 -8 -8 -9
10 10 9 9 10 10 8 7 8 10 10 9 7 3 -0 -1 -5 -7 -10 -10 -5 0 0 -2 -1 -1 -2 -3 -5 -5 -4 -2 -2 -3 -2 -3 -5 -2 -2 -5 -5 -6 -7
10 10 9 9 9 8 8 8 9 10 9 7 7 2 -0 -3 -4 -7 -7 -5 -6 -4 -4 -3 -5 -4 -4 -5 -5 -4 -4 -3 -1 -1 -1 -1 -2 -2 -1 -2 -3 -3 -4
9 9 9 10 9 9 9 9 9 9 8 7 7 2 1 2 -0 -4 -4 -4 -3 -4 -4 -3 -4 -3 -4 -4 -4 -3 -3 -3 -1 -1 -0 -1 -2 -2 -1 -1 -1 -2 -3
8 8 9 9 10 9 9 8 8 8 8 8 6 2 1 2 4 4 3 2 3 4 4 3 4 1 -3 -3 -3 -3 -3 -2 -2 -1 -1 -0 -1 -2 -1 -0 -1 -1 -2
8 9 9 9 9 9 9 7 8 8 9 8 7 3 2 4 2 4 3 4 4 5 5 4 5 4 2 2 -2 -2 -3 -2 -2 -2 -1 -1 -0 -0 -1 -0 -1 -1 -1
8 9 9 9 9 9 9 7 6 7 8 8 6 4 4 2 4 4 4 4 4 4 4 4 5 5 5 5 4 2 -1 -1 0 -1 -2 -1 0 0 -0 -1 0 -1 -1
7 9 9 9 9 9 9 8 8 6 6 8 6 5 3 3 4 4 3 3 3 4 4 5 5 5 6 6 5 4 3 2 2 1 -1 -1 -0 1 1 0 0 0 -2
7 7 9 9 9 9 8 7 8 8 8 7 8 4 4 4 3 2 2 2 4 4 4 5 6 6 6 6 6 6 5 4 3 3 3 0 -1 0 2 2 1 1 0
7 7 8 8 9 9 8 8 9 9 9 8 7 6 3 3 3 3 2 1 4 4 5 6 6 6 7 7 6 6 5 5 5 5 4 3 2 -0 0 2 2 1 1
7 7 8 8 9 9 8 8 7 7 8 6 5 4 4 4 4 3 3 2 4 5 5 5 5 6 6 7 7 6 6 6 6 5 5 5 3 2 0 0 1 2 1
5 6 7 8 8 9 7 7 7 7 7 6 5 5 4 5 4 4 3 3 1 4 6 6 4 3 5 7 8 8 7 7 6 6 6 5 4 3 1 1 1 3 3
4 4 6 7 8 8 6 7 8 7 5 5 5 4 4 5 5 5 3 1 0 3 6 7 7 6 6 6 7 8 8 8 7 7 6 6 6 5 5 1 1 4 3
3 3 4 6 7 7 6 5 8 6 5 5 4 3 3 2 2 2 1 1 1 2 1 5 5 5 6 7 7 7 8 8 8 8 7 7 6 6 4 3 4 3 2

GFSSE_850_dewp_075.txt.gz
Dewpoint
12 10 9 9 9 9 8 7 7 8 10 10 10 8 7 4 1 1 0 3 6 11 12 11 10 9 10 10 11 10 10 11 10 9 9 9 9 10 9 10 10 11 11
13 12 10 9 9 9 8 7 8 9 10 10 10 8 5 5 3 4 3 8 10 12 12 11 10 9 9 8 10 10 10 8 9 10 10 9 9 10 10 10 10 9 8
13 12 9 8 8 9 9 8 7 9 9 10 10 9 6 5 4 4 5 8 11 11 10 9 7 6 3 4 2 4 6 7 7 5 9 10 9 9 9 9 8 8 8
14 14 12 8 8 8 8 7 7 8 8 8 10 9 6 6 5 4 4 9 10 10 7 -4 -2 -0 -2 1 3 3 0 1 -1 2 9 10 9 9 8 8 6 5 2
15 14 14 12 8 9 9 8 9 9 7 6 9 9 7 6 5 4 6 10 10 8 1 5 4 -2 -3 -3 -0 -1 -5 -6 -3 7 9 9 9 7 4 -0 1 2 4
13 14 13 12 11 10 9 9 11 9 10 10 9 8 6 5 3 3 7 9 7 4 10 10 2 3 1 -3 -10 -7 -7 -8 -3 8 8 9 8 8 4 3 3 2 -0
13 13 13 10 8 8 8 8 8 10 11 11 9 7 4 3 -3 -1 7 9 9 10 9 7 4 -3 -10 -8 -12 -10 -10 -9 -2 6 8 9 8 6 6 4 1 -3 -7
10 10 12 12 8 6 5 8 8 9 10 8 8 2 -2 -3 0 0 5 9 8 5 6 5 1 -8 -11 -12 -11 -10 -9 -8 -5 6 7 7 6 6 4 -1 -4 -9 -13
11 9 9 10 10 9 7 8 8 10 11 10 8 6 0 0 4 2 4 1 3 4 4 4 2 -5 -6 -11 -11 -12 -12 -10 -7 5 6 6 5 2 -4 -7 -10 -13 -14
11 11 10 10 10 11 9 9 9 9 10 12 10 8 4 3 2 2 1 2 4 4 5 4 2 0 -2 -6 -10 -11 -10 -11 -9 0 7 4 0 1 -5 -9 -11 -12 -12
11 12 12 12 11 11 11 11 11 9 7 9 11 9 4 2 1 5 -1 3 4 5 6 5 4 2 -1 -4 -8 -10 -10 -10 -10 2 6 1 1 -4 -7 -9 -10 -10 -11
11 11 12 12 12 11 11 10 9 8 9 10 11 8 3 1 2 -0 2 4 4 5 6 5 4 2 -1 -5 -5 -7 -9 -8 -9 -3 2 2 -4 -5 -7 -8 -9 -9 -9
11 11 12 12 11 11 10 10 10 7 9 11 10 8 3 1 1 1 2 4 4 5 6 5 4 1 -3 -5 -5 -5 -7 -7 -7 -2 -4 -5 -5 -5 -6 -6 -7 -7 -7
11 11 11 10 9 10 11 10 9 10 10 10 8 6 1 -0 -0 0 3 3 3 2 2 1 0 -1 -3 -5 -4 -4 -5 -6 -5 -5 -5 -5 -4 -3 -4 -4 -5 -5 -6
9 9 9 9 7 10 10 9 11 10 10 9 8 4 0 -1 -2 -2 -3 3 2 2 1 -0 0 -2 -3 -5 -4 -4 -2 -2 -1 -1 -2 -3 -2 -1 -1 -2 -3 -4 -4
9 9 9 9 9 9 8 10 10 10 10 7 4 3 -0 -1 -3 -6 -2 1 2 1 0 -2 -2 -3 -4 -4 -4 -4 -3 -1 -1 -1 -1 -2 -2 -0 2 -0 -2 -2 -3
9 8 8 8 10 9 9 9 10 10 9 7 4 4 1 -3 -3 -7 -7 -3 -3 -1 -3 -4 -4 -4 -4 -4 -4 -4 -3 -2 -1 -1 -0 -0 -1 -1 0 0 -1 -1 -1
9 8 9 9 10 9 9 9 9 9 9 7 5 1 -2 -0 -6 -6 -5 -1 -0 -3 -2 -1 -3 -3 -3 -3 -3 -3 -3 -2 -2 -1 -1 -0 -0 -0 -1 0 0 -1 -1
9 9 9 9 9 9 9 9 9 9 7 6 5 -1 1 -3 -5 2 2 3 3 4 5 3 3 3 0 -0 -2 -2 -3 -3 -2 -2 -2 -1 -0 0 -0 -1 0 0 -1
8 9 9 9 9 9 9 8 9 9 8 8 3 -0 -1 3 4 4 4 4 5 5 5 5 5 5 5 5 4 3 1 0 1 2 0 -2 -1 0 0 0 -0 0 0
8 9 9 9 9 9 9 8 9 8 9 6 6 1 5 4 5 5 4 5 5 4 5 5 5 5 5 5 5 5 4 3 3 3 3 2 -0 -1 -0 1 1 0 1
7 8 8 9 9 9 9 8 7 8 8 7 7 4 4 4 5 4 5 4 2 3 5 6 6 6 6 6 6 6 6 6 5 5 5 4 3 1 -1 -0 2 1 1
7 7 8 9 8 9 9 8 8 7 7 8 8 5 4 4 4 4 3 2 2 4 5 6 6 6 6 7 7 7 6 6 6 6 6 5 6 4 2 0 -1 -0 1
5 6 7 8 9 9 9 8 7 8 8 7 7 5 5 5 5 4 3 3 4 3 4 4 4 5 6 7 7 7 8 7 7 7 7 7 7 7 5 3 4 2 -0
4 4 6 8 9 9 8 8 8 8 8 8 7 6 5 5 5 4 4 4 5 4 4 3 5 6 6 7 7 6 7 8 8 8 7 7 7 7 6 6 5 5 0
5 4 5 7 8 8 8 8 8 7 8 8 7 6 5 4 5 4 4 4 4 4 3 4 3 4 5 4 4 7 8 8 8 8 7 8 8 6 6 6 5 3 0

GFSSE_850_dewp_078.txt.gz
Dewpoint
15 14 11 11 10 9 10 9 11 11 9 9 8 6 5 3 1 1 -1 -0 7 10 9 9 9 9 9 10 10 10 10 10 10 9 10 10 10 9 11 11 11 11 11
15 15 11 11 10 9 9 10 9 11 10 10 8 7 5 2 1 1 -1 1 9 11 10 9 9 11 11 11 9 10 10 10 9 8 9 10 10 11 11 11 11 11 11
14 15 11 10 10 9 10 10 11 11 11 10 9 7 4 2 2 2 -0 6 12 12 11 10 9 10 10 10 10 10 10 9 9 9 11 11 11 11 10 10 10 9 9
13 15 14 10 10 10 9 10 11 11 11 11 9 7 4 4 4 3 2 9 12 12 11 9 8 8 6 8 7 5 4 7 7 9 10 11 10 10 9 8 8 7 6
13 15 14 9 8 9 9 12 12 11 11 11 9 8 5 5 5 5 5 10 12 11 11 7 2 -3 -1 -1 0 1 5 5 8 8 10 10 9 8 7 5 1 -2 -4
14 14 14 11 7 9 8 8 11 12 12 11 9 8 6 6 5 7 6 10 11 9 3 -3 -6 -4 -1 0 2 0 5 5 8 9 9 8 8 4 -2 -7 -11 -13 -14
13 14 12 12 10 8 8 9 11 12 11 12 10 8 7 7 6 7 10 9 10 6 -2 -3 -3 -3 -4 -2 -3 -6 -1 5 7 8 8 7 7 -0 -8 -9 -15 -15 -17
12 13 14 12 12 11 9 9 11 11 11 10 11 10 8 7 7 7 11 8 7 7 2 2 -0 -2 -4 -9 -10 -10 -8 5 7 8 7 7 6 3 -7 -13 -16 -16 -15
10 11 13 12 9 11 10 9 10 10 11 10 9 11 9 8 7 8 9 7 7 9 5 0 -10 -10 -11 -12 -12 -10 -4 7 7 7 6 7 6 -2 -8 -12 -12 -12 -12
12 13 10 11 10 10 9 10 10 10 10 10 9 8 9 8 7 9 9 8 4 5 6 -3 -9 -11 -11 -11 -10 -8 -5 6 6 6 6 5 3 4 -2 -5 -10 -10 -10
12 12 12 10 9 10 9 9 10 10 10 10 10 10 9 7 9 8 7 4 2 4 3 -3 -3 -7 -10 -9 -9 -7 4 5 6 5 6 -0 6 3 -4 -8 -9 -10 -10
11 11 12 11 11 10 10 10 10 10 10 10 10 10 9 6 9 10 2 4 4 4 3 1 -1 -4 -6 -7 -7 -1 5 6 6 6 7 0 -1 -2 -6 -8 -8 -9 -9
11 11 11 12 10 11 11 11 11 11 10 10 10 11 9 7 7 9 3 5 5 5 4 3 0 2 5 4 3 5 6 6 6 6 5 2 0 -3 -7 -7 -7 -7 -7
11 11 11 11 11 11 11 11 11 10 10 8 10 10 9 9 10 7 4 9 7 7 5 4 5 6 5 5 5 5 6 5 6 6 3 0 1 1 -3 -5 -6 -6 -5
10 10 11 11 10 10 10 11 11 10 10 10 10 9 6 5 7 4 3 8 8 9 7 7 7 5 -1 -1 1 4 5 6 6 6 7 1 2 2 1 -2 -4 -5 -5
11 8 9 9 9 8 10 10 10 10 10 10 8 7 5 3 3 4 2 3 6 9 8 7 7 4 2 3 4 2 4 6 7 6 6 4 2 2 2 -0 -2 -2 -3
10 10 8 10 8 9 9 10 10 10 9 8 7 6 4 2 2 -1 1 2 2 4 5 6 6 4 3 3 4 2 5 6 6 7 6 6 3 1 1 1 -0 -1 -1
9 9 8 9 8 9 9 10 10 10 9 7 6 4 3 2 -1 0 1 2 2 1 0 1 5 3 3 3 4 4 4 5 6 6 6 6 6 6 0 2 2 1 0
9 9 8 9 8 9 9 9 9 10 9 6 5 2 -1 -3 -4 -2 -4 -2 -1 -2 -3 -3 -1 -2 3 3 3 3 4 4 3 5 4 1 5 6 6 4 1 1 1
8 8 9 9 9 9 9 9 9 9 8 6 4 4 1 1 4 2 -1 -2 -2 -2 0 1 0 -2 2 1 0 1 1 2 3 4 3 1 0 -0 4 6 5 4 2
6 8 8 9 9 9 9 9 9 8 7 5 5 3 3 -1 3 -4 -2 1 1 3 4 5 3 3 4 3 2 3 2 1 1 2 2 1 0 -1 2 5 6 5 5
6 8 9 9 9 9 9 8 9 8 6 7 5 0 -4 -3 -3 -2 2 3 5 5 4 5 5 5 6 4 5 6 6 5 5 4 3 3 3 2 2 -0 -1 1 2
6 8 9 8 9 9 9 8 8 9 8 8 4 -1 -4 -1 3 3 5 5 4 3 3 5 6 6 6 6 6 7 7 7 6 6 6 6 6 4 4 5 3 -0 -0
8 6 7 8 8 8 9 8 8 8 9 5 4 0 3 4 5 5 5 4 4 3 2 4 6 6 7 8 6 7 7 7 7 8 7 7 6 6 6 7 5 2 1
8 4 7 8 9 9 8 8 8 8 8 5 5 3 5 5 5 5 4 3 3 2 2 4 6 6 6 7 7 7 6 7 7 7 7 8 7 7 7 7 6 5 5
8 6 8 9 9 8 9 9 9 8 7 8 8 5 4 4 4 4 4 4 3 3 4 3 4 5 5 6 6 6 6 5 7 8 8 8 8 8 7 6 6 5 5

GFSSE_850_dewp_084.txt.gz
Dewpoint
14 13 12 12 10 10 11 12 11 9 6 5 6 4 2 2 1 0 0 -1 2 4 4 4 4 4 8 7 9 10 9 8 7 9 10 11 11 11 11 9 8 8 8
14 13 13 13 10 10 10 11 12 10 7 5 7 5 3 2 1 1 -0 5 6 4 3 7 8 6 5 8 9 8 8 8 9 9 10 11 12 11 11 10 10 9 7
15 14 13 13 10 10 10 11 12 12 8 6 7 6 4 2 2 2 6 7 9 8 11 10 10 8 8 10 9 9 9 9 9 9 9 10 11 11 11 10 9 6 5
15 15 15 14 11 11 10 10 11 12 10 7 7 7 5 3 4 7 8 9 9 9 11 9 9 9 9 9 9 9 9 10 10 11 10 11 11 11 10 9 7 6 4
14 13 15 14 13 11 10 9 10 11 11 9 8 8 6 4 5 8 8 9 10 9 6 9 9 9 8 9 9 8 8 9 10 10 10 10 11 10 8 8 8 6 -0
7 12 11 12 13 11 10 10 10 12 12 11 9 9 6 3 6 5 8 11 12 10 7 4 8 9 9 9 8 9 10 9 9 9 9 10 10 10 8 5 5 -1 -4
12 10 9 9 10 12 10 11 11 12 13 13 12 10 6 5 6 5 9 12 12 11 9 -4 3 7 7 5 8 9 9 9 8 9 8 9 10 8 4 -0 -6 -9 -12
4 4 8 8 11 12 9 10 10 9 8 8 8 12 8 4 9 8 10 12 12 11 7 -6 1 0 -1 0 8 8 8 7 7 8 8 8 9 6 -0 -1 -10 -16 -18
2 9 8 9 12 12 11 9 9 9 8 7 8 8 10 7 9 9 9 12 11 10 5 -4 -4 -4 -5 2 7 7 7 7 7 8 7 8 9 7 1 -11 -16 -18 -17
3 11 14 12 12 12 11 10 10 9 7 8 8 10 12 10 10 9 9 10 11 9 -2 -4 -4 -3 -7 3 6 7 7 6 7 7 6 8 8 7 -0 -11 -13 -11 -11
5 7 10 13 12 12 11 9 10 8 7 7 10 12 11 10 10 10 7 8 9 2 -3 -4 -6 -7 -8 -1 4 4 6 6 6 7 4 7 8 7 -1 -10 -9 -8 -8
9 9 11 12 12 12 11 10 9 9 10 10 8 12 11 9 9 9 11 10 8 1 0 -5 -6 -9 -9 -6 4 6 6 6 6 6 0 7 6 2 -7 -8 -8 -7 -8
9 12 10 12 11 12 11 11 11 11 10 10 11 10 11 10 9 9 9 10 8 3 -8 -8 -9 -8 -9 1 5 6 6 6 5 5 3 6 2 -0 -2 -6 -8 -9 -9
11 11 12 11 11 11 11 11 11 11 10 11 11 11 10 10 10 10 8 10 9 1 -9 -10 -8 -5 -7 4 6 6 6 6 6 4 2 0 -1 -1 -6 -6 -6 -7 -7
11 11 11 11 11 11 11 11 11 11 11 10 11 11 11 11 11 9 9 10 9 -0 -7 -8 4 4 -1 5 7 5 6 6 6 2 -2 -1 2 1 -2 -6 -6 -6 -6
10 10 10 10 10 11 11 10 10 10 11 11 11 11 11 11 10 9 9 8 9 -1 -4 4 7 5 5 6 6 6 6 6 6 2 -3 -1 -0 -1 -3 -4 -5 -5 -5
10 10 10 10 10 10 10 10 9 9 9 11 11 11 10 10 11 10 9 8 6 2 0 7 6 6 6 6 6 6 6 6 6 5 -1 -1 1 2 -1 -2 -2 -2 -3
9 9 10 10 10 10 10 9 8 9 9 10 10 10 11 10 11 9 7 6 7 7 6 7 6 6 5 6 6 6 6 7 6 7 4 -0 1 2 2 -0 -1 -1 -1
9 9 10 9 10 9 10 9 9 10 10 10 10 10 10 10 9 8 7 6 9 7 8 7 5 5 4 5 6 6 6 7 7 7 6 6 4 2 2 -0 0 0 0
9 9 9 9 10 9 9 9 9 9 9 9 9 9 10 10 9 7 8 8 8 7 8 6 4 4 4 4 5 5 5 6 6 6 7 7 6 6 6 5 4 2 1
9 9 9 9 9 9 9 9 9 9 8 8 8 8 9 8 7 7 6 7 7 7 7 6 5 4 4 3 4 5 5 5 5 6 6 6 7 7 7 7 6 5 5
9 9 9 9 9 9 9 9 9 9 9 9 8 7 8 7 5 6 6 4 5 7 5 1 1 1 1 3 3 3 4 4 4 5 5 6 6 6 4 6 5 5 6
9 9 9 9 8 9 9 9 9 9 9 8 7 7 6 7 7 5 4 5 4 2 2 3 2 0 3 3 2 2 4 4 4 4 5 6 5 5 5 5 6 7 7
10 10 9 10 9 8 9 9 9 8 8 8 7 6 6 6 4 4 3 4 3 2 3 3 -0 1 4 3 3 5 5 6 6 6 6 6 5 5 5 5 5 5 4
10 10 9 10 9 9 9 9 9 9 8 6 5 5 4 4 4 4 5 4 3 1 2 1 2 5 7 6 4 5 6 6 6 6 6 5 4 6 6 7 6 7 6
10 10 9 9 10 10 9 9 9 9 8 5 4 4 4 4 4 3 5 3 0 2 5 3 5 6 6 6 6 6 6 6 6 6 6 5 5 5 6 6 6 6 6

GFSSE_850_dewp_087.txt.gz
Dewpoint
13 13 12 11 10 9 9 10 9 6 5 6 6 3 3 4 3 5 7 6 2 -2 -2 5 8 9 10 9 10 11 10 9 9 7 7 9 10 9 8 8 9 11 11
13 13 12 12 10 10 10 10 11 8 6 6 6 4 3 3 3 1 -0 -1 -2 -0 3 4 4 8 9 8 10 10 9 9 10 11 11 11 11 11 9 8 8 10 10
10 13 12 13 11 10 10 10 11 11 7 5 7 5 3 2 0 -1 -2 1 4 2 2 4 2 5 7 9 9 9 9 9 9 11 11 12 11 11 10 8 4 5 8
12 10 12 13 12 10 10 10 11 12 10 6 6 7 4 2 1 0 2 5 6 9 10 11 7 6 9 9 9 9 8 8 9 11 11 11 11 11 10 7 3 5 1
13 4 11 11 12 11 10 9 10 11 12 8 7 7 5 3 2 5 5 8 9 11 11 11 9 10 9 9 8 8 9 9 9 9 11 10 11 11 10 7 5 -1 -3
6 10 10 11 10 11 12 11 9 10 11 11 10 10 6 4 3 6 5 9 10 10 12 11 8 9 9 8 8 8 9 9 9 10 10 10 11 10 7 3 -0 -5 -5
2 4 8 10 10 10 11 11 10 11 13 12 11 11 13 6 6 7 6 9 11 9 11 9 8 9 9 8 8 9 10 10 9 8 10 10 10 10 6 0 -5 -6 -3
2 2 1 6 9 11 11 11 11 11 11 10 9 11 10 12 8 7 9 11 11 10 6 10 9 9 8 9 9 9 9 9 8 7 8 10 9 8 3 -3 -9 -9 -10
8 3 3 5 10 11 12 10 11 11 11 10 9 7 6 10 10 7 10 11 12 11 4 8 8 7 6 9 9 8 8 7 7 6 5 9 8 6 -0 -7 -10 -12 -11
3 4 11 11 12 13 13 11 10 10 10 9 8 7 7 9 11 8 8 7 11 11 4 4 4 0 8 8 8 7 7 7 6 5 5 8 8 8 2 -7 -11 -11 -13
8 5 9 13 12 12 12 11 10 10 10 8 8 9 9 8 12 11 8 9 8 10 3 -1 1 -2 8 7 7 6 7 7 7 2 5 8 8 7 5 -2 -7 -10 -9
9 8 6 13 12 12 11 11 10 9 7 7 9 10 11 10 10 9 9 9 11 9 -4 -1 0 -0 7 7 6 6 6 6 5 5 -1 8 8 1 -2 -1 -6 -8 -9
10 9 6 10 12 12 11 11 10 8 8 9 9 9 10 11 11 9 8 9 11 5 -2 -3 -0 -1 4 2 6 7 7 6 6 6 -3 4 1 3 -3 -6 -8 -10 -10
9 10 7 9 12 11 11 11 10 9 8 10 11 9 7 10 10 9 8 9 9 2 -1 -1 -4 -5 -3 6 6 7 7 6 5 5 -3 1 3 4 -5 -8 -9 -9 -10
8 9 7 9 11 11 11 11 11 10 10 10 10 8 11 10 9 9 9 8 7 3 -5 -4 -8 -7 3 6 6 7 7 6 5 4 -4 -0 -1 -4 -6 -7 -7 -8 -8
8 9 9 7 10 11 11 11 11 11 11 11 11 11 11 10 10 10 9 8 8 4 -7 -9 -9 -2 6 6 5 7 7 6 6 4 -4 -3 -4 -5 -6 -7 -7 -7 -6
8 8 10 10 8 10 11 11 10 10 10 11 11 12 11 10 10 10 9 9 9 4 -8 -1 -1 1 6 6 6 7 7 6 6 4 -5 -4 -3 -4 -5 -5 -5 -5 -4
8 8 10 10 10 9 9 10 10 10 9 10 11 11 11 11 11 10 9 9 8 -1 -2 6 5 1 5 6 6 7 6 6 6 5 -4 -2 -2 -3 -3 -2 -2 -2 -2
9 8 9 10 9 8 9 9 9 8 9 10 10 11 11 11 11 11 10 9 6 -2 6 7 6 6 6 6 6 6 7 7 6 6 5 -1 -1 -1 -2 -2 -1 -1 -1
9 9 9 10 9 8 9 9 9 8 9 8 9 10 10 11 11 10 10 7 6 1 7 6 6 6 6 6 6 6 7 7 6 6 6 6 4 3 0 1 -0 -0 -0
9 9 9 9 9 9 9 9 9 9 9 9 8 9 9 9 10 10 9 9 6 4 7 6 5 5 5 5 6 6 6 6 6 7 7 7 6 6 6 5 5 4 4
8 9 9 9 8 9 10 9 9 8 9 8 9 10 10 10 10 10 8 6 5 8 7 6 4 4 5 5 5 5 6 6 6 6 6 7 7 7 7 6 4 4 5
9 9 9 9 7 9 9 10 9 8 8 8 8 9 9 9 9 8 7 9 8 8 7 5 4 4 4 4 4 3 5 5 5 6 6 6 6 6 6 6 5 4 3
9 9 9 8 6 8 9 9 9 8 9 8 9 9 9 9 8 8 7 8 7 8 7 5 3 1 1 1 3 4 3 2 4 4 5 6 6 5 5 5 4 4 5
9 9 9 8 7 7 8 9 8 9 8 8 8 8 8 7 7 8 7 7 5 5 5 2 1 1 2 1 4 3 3 5 5 5 5 4 5 5 5 6 5 5 5
9 9 9 8 7 9 9 9 9 9 8 8 8 7 8 7 7 7 6 5 5 4 3 1 2 2 0 2 3 2 3 5 6 5 5 4 5 4 4 5 5 6 6

GFSSE_850_dewp_090.txt.gz
Dewpoint
12 11 11 11 10 10 9 8 6 6 6 5 3 3 7 10 11 11 10 9 8 4 3 8 10 8 9 10 12 12 11 11 11 12 12 12 12 11 12 12 12 11 11
12 11 12 11 10 10 10 9 8 6 6 6 4 3 4 6 8 10 10 8 6 3 0 8 9 9 9 10 11 10 9 8 8 11 11 11 11 11 10 10 10 11 10
9 11 10 12 11 10 10 10 9 7 5 6 6 3 2 2 3 5 4 1 -2 -1 1 5 10 11 9 9 10 9 9 10 11 11 11 11 11 11 10 10 10 8 8
4 7 8 9 11 10 10 10 11 10 7 5 7 5 2 2 0 -1 -0 -1 -1 0 3 6 10 11 9 10 9 9 11 11 12 12 11 11 10 10 7 3 4 7 8
1 3 8 7 9 11 10 10 10 11 10 7 6 7 4 2 0 -2 -2 2 2 2 5 10 10 8 9 9 9 9 10 9 11 11 10 10 10 10 7 1 -1 3 5
-2 1 2 6 7 9 11 10 9 10 11 9 6 8 5 4 2 -0 -1 4 7 9 10 10 7 9 10 9 9 9 9 9 9 9 10 10 10 10 8 -1 -5 -5 -0
-0 3 4 6 7 7 10 11 10 10 11 11 8 9 9 9 9 8 4 7 9 10 10 9 10 10 9 9 8 8 8 8 8 9 10 10 10 9 6 -0 -3 -4 -1
3 5 5 7 10 11 10 11 11 10 11 11 11 10 11 11 9 12 9 10 9 10 11 9 10 9 9 8 8 8 7 7 7 9 10 10 9 9 3 -6 -6 -4 -3
2 5 3 3 8 11 12 11 11 11 12 11 12 11 11 9 9 10 11 10 10 9 10 9 9 9 9 9 8 8 7 8 7 6 10 9 9 8 3 -0 -5 -4 -13
3 3 1 2 7 11 12 12 11 11 12 11 12 11 9 10 9 9 11 11 10 9 9 9 10 9 9 10 10 9 8 7 7 5 7 8 8 6 0 -4 -8 -14 -12
6 6 5 3 9 13 13 12 11 11 11 11 10 9 9 8 8 8 11 11 11 10 7 9 9 9 10 9 8 8 7 7 6 3 4 8 8 6 1 -2 -13 -12 -10
8 8 8 5 9 12 12 13 12 11 11 10 8 8 9 8 9 11 11 8 9 9 4 9 8 9 8 8 8 7 7 6 5 -2 1 8 7 7 2 -8 -10 -10 -9
9 9 9 6 9 12 12 12 11 11 11 8 9 8 9 9 8 11 10 8 8 9 4 5 4 9 7 7 7 7 6 5 3 -1 -0 8 8 6 -3 -10 -9 -9 -9
9 9 8 6 8 11 11 11 11 10 9 9 9 8 11 10 11 10 9 8 8 10 1 3 -0 8 7 7 7 6 6 6 5 4 -0 7 3 1 -6 -8 -9 -10 -10
9 9 7 4 6 11 11 11 11 10 10 10 10 7 10 8 9 9 9 7 6 9 -0 1 1 8 7 6 6 7 6 6 5 5 -3 2 3 -4 -7 -9 -10 -10 -10
9 8 6 3 6 9 11 11 11 11 11 10 10 8 8 9 10 9 8 7 9 6 -2 -0 -2 6 5 6 6 7 7 6 5 5 -4 -6 -3 -6 -8 -8 -8 -9 -9
8 7 7 5 7 9 10 11 11 11 11 11 10 11 9 8 10 9 9 9 7 3 0 -2 -5 2 5 6 7 7 7 6 6 5 -5 -5 -4 -4 -6 -7 -7 -7 -7
7 7 7 7 9 8 9 10 10 10 11 11 11 11 10 10 10 10 9 8 8 4 -3 -5 -9 -3 6 7 7 7 7 6 6 4 -4 -5 -4 -4 -5 -6 -6 -5 -4
5 7 7 7 9 9 9 8 9 10 10 11 11 11 11 11 10 10 10 9 7 4 -6 -9 -7 6 6 7 7 6 7 6 6 5 -3 -4 -3 -3 -4 -4 -3 -3 -2
6 7 8 8 10 10 9 8 9 9 10 9 9 11 11 10 11 11 10 9 9 5 -6 -4 1 6 5 6 6 7 7 6 6 5 5 -1 -1 -2 -2 -2 -1 -1 -1
7 8 8 8 9 9 8 8 9 9 9 9 9 9 9 11 11 11 11 10 9 -3 0 2 -0 2 5 6 6 7 7 7 6 6 6 4 5 3 2 -0 0 -1 -0
6 8 8 8 8 8 9 7 9 8 9 9 8 9 9 10 11 11 10 9 9 -4 7 5 5 6 6 6 6 7 8 8 7 7 6 7 6 6 6 6 4 4 4
7 7 8 8 7 9 8 9 9 9 8 8 8 8 9 9 10 11 10 10 6 1 6 6 6 6 6 6 6 5 6 7 7 7 7 7 7 7 6 6 5 4 3
7 8 8 8 8 8 7 9 9 9 8 8 8 9 9 9 9 10 10 8 6 4 7 6 6 5 5 5 6 5 4 4 6 6 7 6 6 6 6 5 5 5 5
7 8 8 8 8 7 6 9 9 9 8 8 8 8 8 9 8 9 9 8 6 6 7 7 5 4 5 4 5 4 4 3 4 5 6 6 6 6 5 5 5 5 5
8 8 8 9 8 6 4 9 9 9 8 8 8 8 9 9 9 8 8 8 6 8 6 6 5 4 4 3 3 4 3 4 4 4 3 4 4 3 4 5 5 5 5